TimeEST,TemperatureF,Dew PointF,Humidity,Sea Level PressureIn,VisibilityMPH,Wind Direction,Wind SpeedMPH,Gust SpeedMPH,PrecipitationIn,Events,Conditions,WindDirDegrees,DateUTC
12:53 AM,44.1,24.1,45,30.05,10.0,West,9.2,-,N/A,,Partly Cloudy,260,2013-01-10 05:53:00
1:53 AM,43.0,23.0,45,30.06,10.0,West,10.4,-,N/A,,Partly Cloudy,270,2013-01-10 06:53:00
2:28 AM,44.6,24.8,46,30.09,10.0,WNW,21.9,35.7,N/A,,Scattered Clouds,290,2013-01-10 07:28:00
2:53 AM,43.0,25.0,49,30.10,10.0,WNW,23.0,34.5,N/A,,Clear,290,2013-01-10 07:53:00
3:53 AM,42.1,24.1,49,30.14,10.0,WNW,18.4,28.8,N/A,,Clear,300,2013-01-10 08:53:00
4:53 AM,41.0,23.0,49,30.18,10.0,NW,9.2,-,N/A,,Clear,310,2013-01-10 09:53:00
5:53 AM,41.0,21.0,45,30.23,10.0,NW,8.1,20.7,N/A,,Clear,310,2013-01-10 10:53:00
6:53 AM,41.0,19.9,43,30.26,10.0,NW,12.7,21.9,N/A,,Clear,310,2013-01-10 11:53:00
7:53 AM,39.9,21.0,47,30.29,10.0,WNW,10.4,-,N/A,,Clear,290,2013-01-10 12:53:00
8:53 AM,42.1,21.0,43,30.33,10.0,WNW,13.8,23.0,N/A,,Clear,290,2013-01-10 13:53:00
9:53 AM,43.0,21.0,42,30.34,10.0,NW,15.0,26.5,N/A,,Clear,310,2013-01-10 14:53:00
10:53 AM,45.0,19.9,37,30.34,10.0,NW,17.3,24.2,N/A,,Clear,310,2013-01-10 15:53:00
11:53 AM,46.0,21.0,37,30.32,10.0,NW,16.1,27.6,N/A,,Clear,310,2013-01-10 16:53:00
12:53 PM,46.9,21.0,36,30.33,10.0,NW,10.4,19.6,N/A,,Clear,310,2013-01-10 17:53:00
1:53 PM,48.0,19.9,33,30.35,10.0,NW,15.0,24.2,N/A,,Clear,310,2013-01-10 18:53:00
2:53 PM,46.9,19.9,34,30.38,10.0,NW,13.8,20.7,N/A,,Clear,310,2013-01-10 19:53:00
3:53 PM,45.0,19.9,37,30.40,10.0,NW,8.1,-,N/A,,Clear,310,2013-01-10 20:53:00
4:53 PM,41.0,19.9,43,30.44,10.0,NW,6.9,-,N/A,,Clear,310,2013-01-10 21:53:00
5:53 PM,37.0,21.0,52,30.45,10.0,WNW,6.9,-,N/A,,Clear,300,2013-01-10 22:53:00
6:53 PM,37.9,19.9,48,30.46,10.0,NW,3.5,-,N/A,,Clear,320,2013-01-10 23:53:00
7:53 PM,36.0,21.0,55,30.48,10.0,WNW,9.2,-,N/A,,Clear,300,2013-01-11 00:53:00
8:53 PM,32.0,19.9,61,30.51,10.0,Calm,Calm,-,N/A,,Clear,0,2013-01-11 01:53:00
9:53 PM,35.1,21.0,57,30.54,10.0,NNW,4.6,-,N/A,,Clear,330,2013-01-11 02:53:00
10:53 PM,33.1,21.0,61,30.53,10.0,Calm,Calm,-,N/A,,Clear,0,2013-01-11 03:53:00
11:53 PM,32.0,21.0,64,30.52,10.0,Calm,Calm,-,N/A,,Clear,0,2013-01-11 04:53:00